Location: Pensacola
(30.4142°N, 87.2155°W)
Time: 05:39:51
(UTC-05:00)

NANOSAT C BR1 - Visible Passes

Search period start: 05 June 2023 00:00
Search period end: 15 June 2023 00:00
Orbit: 573 x 586 km, 98.0° (Epoch: 04 June)

Date Brightness Start Highest point End Pass type
(mag) Time Alt. Az. Time Alt. Az. Time Alt. Az.
05 Jun ? 03:54:50 10° N 03:58:50 47° WNW 03:59:17 45° W visible
06 Jun ? 02:27:12 10° ENE 02:27:55 11° E 02:27:55 11° E visible
06 Jun ? 03:59:47 10° N 04:03:41 41° WNW 04:04:15 39° W visible
07 Jun ? 02:31:21 10° ENE 02:32:52 13° E 02:32:52 13° E visible
07 Jun ? 04:04:44 10° N 04:08:32 36° WNW 04:09:11 33° W visible
08 Jun ? 02:35:46 10° ENE 02:37:48 14° E 02:37:48 14° E visible
08 Jun ? 04:09:42 10° N 04:13:22 31° WNW 04:14:08 29° W visible
09 Jun ? 02:40:16 10° NE 02:42:43 17° E 02:42:43 17° E visible
09 Jun ? 04:14:40 10° NNW 04:18:12 27° WNW 04:19:03 25° W visible
10 Jun ? 02:44:51 10° NE 02:47:38 19° E 02:47:38 19° E visible
10 Jun ? 04:19:39 10° NNW 04:23:00 24° WNW 04:23:58 22° W visible
11 Jun ? 02:49:27 10° NE 02:52:32 22° E 02:52:32 22° E visible
11 Jun ? 04:24:39 10° NNW 04:27:48 21° WNW 04:28:51 19° W visible
12 Jun ? 02:54:05 10° NE 02:57:25 25° E 02:57:25 25° E visible
12 Jun ? 04:29:40 10° NNW 04:32:34 19° WNW 04:33:44 17° W visible
13 Jun ? 02:58:45 10° NE 03:02:17 28° E 03:02:17 28° E visible
13 Jun ? 04:34:42 10° NNW 04:37:20 17° WNW 04:38:36 15° W visible
14 Jun ? 03:03:25 10° NE 03:07:08 32° E 03:07:08 32° E visible
14 Jun ? 04:39:48 10° NW 04:42:05 15° WNW 04:43:28 13° W visible
